| time (UTC) | temp C | wind direction | speed KPH | gust KPH | rain 1hr cm | rain 24hr cm | rain mn cm | humidity % | barometer mb |
| 20260509111323 | 12 | 21 | 11.3 | 35.4 | 0.00 | 0.00 | 0.00 | 45 | 974.4 |
| 20260509110823 | 12 | 174 | 9.7 | 35.4 | 0.00 | 0.00 | 0.00 | 46 | 974.7 |
| 20260509110323 | 12 | 204 | 8.0 | 24.1 | 0.00 | 0.00 | 0.00 | 47 | 974.6 |
| 20260509105753 | 12 | 198 | 8.0 | 22.5 | 0.00 | 0.00 | 0.00 | 47 | 974.7 |
| 20260509105253 | 12 | 83 | 8.0 | 25.7 | 0.00 | 0.00 | 0.00 | 46 | 974.6 |
| 20260509104753 | 12 | 216 | 8.0 | 25.7 | 0.00 | 0.00 | 0.00 | 46 | 974.8 |
| 20260509104253 | 12 | 246 | 9.7 | 37.0 | 0.00 | 0.00 | 0.00 | 45 | 974.6 |
| 20260509103753 | 13 | 203 | 11.3 | 37.0 | 0.00 | 0.00 | 0.00 | 44 | 974.6 |
| 20260509103253 | 13 | 138 | 11.3 | 41.8 | 0.00 | 0.00 | 0.00 | 44 | 974.6 |
| 20260509102723 | 13 | 45 | 9.7 | 41.8 | 0.00 | 0.00 | 0.00 | 43 | 974.7 |
| 20260509102223 | 13 | 196 | 9.7 | 41.8 | 0.00 | 0.00 | 0.00 | 43 | 974.7 |
| 20260509101653 | 13 | 257 | 8.0 | 22.5 | 0.00 | 0.00 | 0.00 | 45 | 974.9 |
| 20260509101123 | 13 | 228 | 9.7 | 29.0 | 0.00 | 0.00 | 0.00 | 44 | 974.9 |
| 20260509100623 | 13 | 193 | 9.7 | 29.0 | 0.00 | 0.00 | 0.00 | 45 | 974.8 |
| 20260509100123 | 13 | 149 | 9.7 | 29.0 | 0.00 | 0.00 | 0.00 | 44 | 975.0 |
| 20260509095623 | 13 | 186 | 8.0 | 22.5 | 0.00 | 0.00 | 0.00 | 45 | 975.1 |
| 20260509095053 | 13 | 91 | 8.0 | 25.7 | 0.00 | 0.00 | 0.00 | 43 | 975.0 |
| 20260509094553 | 13 | 257 | 8.0 | 25.7 | 0.00 | 0.00 | 0.00 | 45 | 975.1 |
| 20260509094053 | 13 | 194 | 6.4 | 24.1 | 0.00 | 0.00 | 0.00 | 45 | 975.1 |
| 20260509093553 | 13 | 235 | 6.4 | 14.5 | 0.00 | 0.00 | 0.00 | 47 | 975.2 |
| 20260509093053 | 13 | 201 | 6.4 | 14.5 | 0.00 | 0.00 | 0.00 | 47 | 975.3 |
| 20260509092553 | 12 | 325 | 6.4 | 14.5 | 0.00 | 0.00 | 0.00 | 45 | 975.2 |
| 20260509092053 | 12 | 200 | 6.4 | 17.7 | 0.00 | 0.00 | 0.00 | 46 | 975.3 |
| 20260509091553 | 12 | 271 | 6.4 | 17.7 | 0.00 | 0.00 | 0.00 | 47 | 975.3 |
| 20260509091053 | 12 | 219 | 6.4 | 17.7 | 0.00 | 0.00 | 0.00 | 48 | 975.3 |
| 20260509090552 | 12 | 182 | 8.0 | 17.7 | 0.00 | 0.00 | 0.00 | 48 | 975.3 |
| 20260509090052 | 12 | 223 | 8.0 | 17.7 | 0.00 | 0.00 | 0.00 | 47 | 975.2 |
| 20260509085522 | 12 | 172 | 8.0 | 20.9 | 0.00 | 0.00 | 0.00 | 47 | 975.1 |
| 20260509085022 | 13 | 172 | 8.0 | 20.9 | 0.00 | 0.00 | 0.00 | 47 | 975.3 |
| 20260509084522 | 13 | 262 | 9.7 | 20.9 | 0.00 | 0.00 | 0.00 | 46 | 975.2 |
| 20260509084022 | 13 | 215 | 9.7 | 22.5 | 0.00 | 0.00 | 0.00 | 47 | 975.4 |
| 20260509083452 | 13 | 231 | 8.0 | 22.5 | 0.00 | 0.00 | 0.00 | 45 | 975.3 |
| 20260509082952 | 13 | 182 | 8.0 | 20.9 | 0.00 | 0.00 | 0.00 | 46 | 975.4 |
| 20260509082452 | 14 | 257 | 6.4 | 20.9 | 0.00 | 0.00 | 0.00 | 46 | 975.4 |
| 20260509081952 | 14 | 144 | 6.4 | 19.3 | 0.00 | 0.00 | 0.00 | 45 | 975.3 |
| 20260509081452 | 13 | 184 | 8.0 | 20.9 | 0.00 | 0.00 | 0.00 | 48 | 975.4 |
| 20260509080952 | 13 | 143 | 8.0 | 20.9 | 0.00 | 0.00 | 0.00 | 46 | 975.3 |
| 20260509080422 | 13 | 246 | 8.0 | 33.8 | 0.00 | 0.00 | 0.00 | 47 | 975.4 |
| 20260509075852 | 13 | 226 | 8.0 | 33.8 | 0.00 | 0.00 | 0.00 | 47 | 975.3 |
| 20260509075352 | 13 | 225 | 8.0 | 27.4 | 0.00 | 0.00 | 0.00 | 47 | 975.4 |
| 20260509074852 | 13 | 246 | 9.7 | 27.4 | 0.00 | 0.00 | 0.00 | 45 | 975.4 |
| 20260509074322 | 13 | 49 | 9.7 | 33.8 | 0.00 | 0.00 | 0.00 | 48 | 975.4 |
| 20260509073822 | 13 | 82 | 9.7 | 33.8 | 0.00 | 0.00 | 0.00 | 48 | 975.5 |
| 20260509073252 | 13 | 107 | 9.7 | 30.6 | 0.00 | 0.00 | 0.00 | 48 | 975.5 |
| 20260509072752 | 13 | 61 | 9.7 | 30.6 | 0.00 | 0.00 | 0.00 | 49 | 975.6 |
| 20260509072252 | 13 | 195 | 9.7 | 30.6 | 0.00 | 0.00 | 0.00 | 50 | 975.7 |
| 20260509071752 | 12 | 194 | 9.7 | 25.7 | 0.00 | 0.00 | 0.00 | 50 | 975.8 |
| 20260509071222 | 12 | 206 | 8.0 | 29.0 | 0.00 | 0.00 | 0.00 | 50 | 975.7 |
| 20260509070722 | 12 | 205 | 8.0 | 29.0 | 0.00 | 0.00 | 0.00 | 50 | 975.6 |
| 20260509070222 | 13 | 249 | 8.0 | 24.1 | 0.00 | 0.00 | 0.00 | 50 | 975.9 |
| 20260509065722 | 12 | 217 | 8.0 | 24.1 | 0.00 | 0.00 | 0.00 | 49 | 975.6 |
| 20260509065152 | 13 | 242 | 8.0 | 20.9 | 0.00 | 0.00 | 0.00 | 50 | 975.8 |
| 20260509064652 | 11 | 252 | 8.0 | 24.1 | 0.00 | 0.00 | 0.00 | 50 | 975.6 |
| 20260509064152 | 12 | 246 | 8.0 | 35.4 | 0.00 | 0.00 | 0.00 | 50 | 975.6 |
| 20260509063622 | 12 | 197 | 9.7 | 35.4 | 0.00 | 0.00 | 0.00 | 51 | 975.7 |
| 20260509063122 | 11 | 171 | 8.0 | 20.9 | 0.00 | 0.00 | 0.00 | 51 | 975.6 |
| 20260509062622 | 11 | 213 | 8.0 | 30.6 | 0.00 | 0.00 | 0.00 | 52 | 975.6 |
| 20260509062122 | 11 | 52 | 8.0 | 30.6 | 0.00 | 0.00 | 0.00 | 52 | 975.6 |
| 20260509061622 | 11 | 167 | 8.0 | 25.7 | 0.00 | 0.00 | 0.00 | 52 | 975.6 |
| 20260509061122 | 11 | 260 | 8.0 | 17.7 | 0.00 | 0.00 | 0.00 | 52 | 975.6 |
| 20260509060552 | 12 | 208 | 8.0 | 25.7 | 0.00 | 0.00 | 0.00 | 50 | 975.7 |
| 20260509060052 | 12 | 248 | 9.7 | 25.7 | 0.00 | 0.00 | 0.00 | 51 | 975.7 |
| 20260509055522 | 11 | 201 | 8.0 | 20.9 | 0.00 | 0.00 | 0.00 | 51 | 975.7 |
| 20260509055022 | 11 | 244 | 8.0 | 25.7 | 0.00 | 0.00 | 0.00 | 53 | 975.7 |
| 20260509054522 | 10 | 263 | 8.0 | 27.4 | 0.00 | 0.00 | 0.00 | 54 | 975.7 |
| 20260509054022 | 9 | 248 | 8.0 | 30.6 | 0.00 | 0.00 | 0.00 | 56 | 975.7 |
| 20260509053452 | 9 | 212 | 8.0 | 30.6 | 0.00 | 0.00 | 0.00 | 54 | 975.7 |
| 20260509052952 | 9 | 99 | 8.0 | 27.4 | 0.00 | 0.00 | 0.00 | 53 | 975.7 |
| 20260509052422 | 10 | 175 | 9.7 | 37.0 | 0.00 | 0.00 | 0.00 | 52 | 975.6 |
| 20260509051852 | 11 | 163 | 8.0 | 37.0 | 0.00 | 0.00 | 0.00 | 50 | 975.8 |
| 20260509051352 | 11 | 247 | 8.0 | 35.4 | 0.00 | 0.00 | 0.00 | 49 | 975.8 |
| 20260509050852 | 12 | 0 | 8.0 | 35.4 | 0.00 | 0.00 | 0.00 | 48 | 975.8 |
| 20260509050351 | 12 | 199 | 8.0 | 19.3 | 0.00 | 0.00 | 0.00 | 48 | 975.7 |
| 20260509045851 | 11 | 190 | 8.0 | 17.7 | 0.00 | 0.00 | 0.00 | 48 | 975.8 |
| 20260509045351 | 11 | 268 | 8.0 | 20.9 | 0.00 | 0.00 | 0.00 | 49 | 975.9 |
| 20260509044821 | 11 | 247 | 8.0 | 27.4 | 0.00 | 0.00 | 0.00 | 49 | 975.8 |
| 20260509044251 | 11 | 230 | 8.0 | 27.4 | 0.00 | 0.00 | 0.00 | 50 | 975.9 |
| 20260509043751 | 10 | 254 | 8.0 | 20.9 | 0.00 | 0.00 | 0.00 | 52 | 975.9 |
| 20260509043251 | 10 | 243 | 8.0 | 20.9 | 0.00 | 0.00 | 0.00 | 52 | 975.9 |
| 20260509042751 | 10 | 196 | 8.0 | 19.3 | 0.00 | 0.00 | 0.00 | 52 | 976.2 |
| 20260509042251 | 10 | 338 | 8.0 | 19.3 | 0.00 | 0.00 | 0.00 | 52 | 976.1 |
| 20260509041751 | 10 | 197 | 8.0 | 19.3 | 0.00 | 0.00 | 0.00 | 53 | 976.0 |
| 20260509041251 | 10 | 255 | 8.0 | 17.7 | 0.00 | 0.00 | 0.00 | 54 | 976.1 |
| 20260509040751 | 9 | 185 | 6.4 | 16.1 | 0.00 | 0.00 | 0.00 | 54 | 976.0 |
| 20260509040251 | 8 | 231 | 8.0 | 22.5 | 0.00 | 0.00 | 0.00 | 56 | 976.0 |
| 20260509035721 | 8 | 64 | 9.7 | 27.4 | 0.00 | 0.00 | 0.00 | 57 | 976.2 |
| 20260509035221 | 8 | 59 | 9.7 | 27.4 | 0.00 | 0.00 | 0.00 | 56 | 976.1 |
| 20260509034721 | 7 | 219 | 9.7 | 25.7 | 0.00 | 0.00 | 0.00 | 59 | 976.1 |
| 20260509034221 | 7 | 97 | 8.0 | 22.5 | 0.00 | 0.00 | 0.00 | 61 | 976.1 |
| 20260509033721 | 7 | 222 | 9.7 | 25.7 | 0.00 | 0.00 | 0.00 | 62 | 976.2 |
| 20260509033221 | 7 | 211 | 9.7 | 25.7 | 0.00 | 0.00 | 0.00 | 62 | 976.2 |
| 20260509032651 | 7 | 77 | 9.7 | 25.7 | 0.00 | 0.00 | 0.00 | 62 | 976.2 |
| 20260509032151 | 7 | 46 | 6.4 | 19.3 | 0.00 | 0.00 | 0.00 | 63 | 976.2 |
| 20260509031621 | 7 | 46 | 8.0 | 20.9 | 0.00 | 0.00 | 0.00 | 63 | 976.1 |
| 20260509031121 | 7 | 91 | 8.0 | 20.9 | 0.00 | 0.00 | 0.00 | 63 | 976.2 |
| 20260509030551 | 7 | 34 | 8.0 | 19.3 | 0.00 | 0.00 | 0.00 | 62 | 976.2 |
| 20260509030051 | 7 | 52 | 9.7 | 29.0 | 0.00 | 0.00 | 0.00 | 62 | 976.2 |
| 20260509025551 | 7 | 58 | 8.0 | 29.0 | 0.00 | 0.00 | 0.00 | 61 | 976.1 |
| 20260509025051 | 7 | 68 | 8.0 | 29.0 | 0.00 | 0.00 | 0.00 | 61 | 976.0 |
| 20260509024551 | 7 | 44 | 8.0 | 22.5 | 0.00 | 0.00 | 0.00 | 61 | 976.0 |
| 20260509024051 | 7 | 79 | 6.4 | 20.9 | 0.00 | 0.00 | 0.00 | 61 | 976.0 |
| 20260509023521 | 7 | 204 | 6.4 | 17.7 | 0.00 | 0.00 | 0.00 | 62 | 976.0 |
| 20260509023021 | 6 | 288 | 6.4 | 17.7 | 0.00 | 0.00 | 0.00 | 64 | 976.0 |
| 20260509022521 | 6 | 58 | 6.4 | 17.7 | 0.00 | 0.00 | 0.00 | 65 | 976.0 |
| 20260509022021 | 6 | 164 | 8.0 | 17.7 | 0.00 | 0.00 | 0.00 | 65 | 976.0 |
| 20260509021451 | 6 | 67 | 8.0 | 17.7 | 0.00 | 0.00 | 0.00 | 64 | 976.1 |
| 20260509020950 | 6 | 57 | 8.0 | 20.9 | 0.00 | 0.00 | 0.00 | 64 | 976.1 |
| 20260509020421 | 6 | 95 | 6.4 | 20.9 | 0.00 | 0.00 | 0.00 | 63 | 976.1 |
| 20260509015920 | 6 | 99 | 8.0 | 19.3 | 0.00 | 0.00 | 0.00 | 62 | 976.1 |
| 20260509015420 | 7 | 31 | 8.0 | 19.3 | 0.00 | 0.00 | 0.00 | 62 | 976.2 |
| 20260509014920 | 7 | 0 | 8.0 | 19.3 | 0.00 | 0.00 | 0.00 | 62 | 976.1 |
| 20260509014350 | 7 | 78 | 6.4 | 17.7 | 0.00 | 0.00 | 0.00 | 62 | 976.2 |
| 20260509013850 | 6 | 87 | 8.0 | 19.3 | 0.00 | 0.00 | 0.00 | 62 | 976.2 |
| 20260509013350 | 7 | 62 | 8.0 | 19.3 | 0.00 | 0.00 | 0.00 | 62 | 976.2 |
| 20260509012850 | 7 | 54 | 8.0 | 19.3 | 0.00 | 0.00 | 0.00 | 62 | 976.2 |
| 20260509012350 | 7 | 75 | 8.0 | 17.7 | 0.00 | 0.00 | 0.00 | 61 | 976.2 |
| 20260509011820 | 7 | 73 | 9.7 | 20.9 | 0.00 | 0.00 | 0.00 | 60 | 976.2 |
| 20260509011320 | 7 | 54 | 9.7 | 20.9 | 0.00 | 0.00 | 0.00 | 60 | 976.2 |
| 20260509010820 | 7 | 44 | 12.9 | 22.5 | 0.00 | 0.00 | 0.00 | 59 | 976.3 |
| 20260509010320 | 7 | 77 | 12.9 | 25.7 | 0.00 | 0.00 | 0.00 | 59 | 976.2 |
| 20260509005820 | 7 | 47 | 11.3 | 25.7 | 0.00 | 0.00 | 0.00 | 59 | 976.2 |
| 20260509005320 | 7 | 68 | 9.7 | 22.5 | 0.00 | 0.00 | 0.00 | 60 | 976.3 |
| 20260509004820 | 7 | 76 | 9.7 | 22.5 | 0.00 | 0.00 | 0.00 | 61 | 976.1 |
| 20260509004250 | 7 | 117 | 9.7 | 20.9 | 0.00 | 0.00 | 0.00 | 62 | 976.3 |
| 20260509003750 | 7 | 73 | 8.0 | 20.9 | 0.00 | 0.00 | 0.00 | 62 | 976.2 |
| 20260509003250 | 7 | 105 | 8.0 | 19.3 | 0.00 | 0.00 | 0.00 | 62 | 976.3 |
| 20260509002720 | 7 | 63 | 9.7 | 20.9 | 0.00 | 0.00 | 0.00 | 61 | 976.3 |
| 20260509002220 | 7 | 62 | 8.0 | 20.9 | 0.00 | 0.00 | 0.00 | 60 | 976.4 |
| 20260509001720 | 7 | 57 | 6.4 | 20.9 | 0.00 | 0.00 | 0.00 | 59 | 976.3 |
| 20260509001220 | 7 | 8 | 6.4 | 20.9 | 0.00 | 0.00 | 0.00 | 59 | 976.3 |
| 20260509000720 | 7 | 209 | 6.4 | 17.7 | 0.00 | 0.00 | 0.00 | 60 | 976.4 |
| 20260509000220 | 7 | 50 | 8.0 | 17.7 | 0.00 | 0.00 | 0.00 | 61 | 976.3 |
| 20260508235650 | 7 | 217 | 9.7 | 20.9 | 0.00 | 0.00 | 0.00 | 63 | 976.5 |
| 20260508235150 | 7 | 64 | 9.7 | 20.9 | 0.00 | 0.00 | 0.00 | 63 | 976.5 |
| 20260508234650 | 7 | 95 | 9.7 | 17.7 | 0.00 | 0.00 | 0.00 | 62 | 976.6 |
| 20260508234149 | 7 | 51 | 9.7 | 17.7 | 0.00 | 0.00 | 0.00 | 62 | 976.5 |
| 20260508233620 | 7 | 75 | 9.7 | 17.7 | 0.00 | 0.00 | 0.00 | 62 | 976.6 |
| 20260508233119 | 7 | 42 | 8.0 | 17.7 | 0.00 | 0.00 | 0.00 | 60 | 976.5 |
| 20260508232550 | 7 | 66 | 8.0 | 17.7 | 0.00 | 0.00 | 0.00 | 59 | 976.5 |
| 20260508232049 | 7 | 51 | 8.0 | 16.1 | 0.00 | 0.00 | 0.00 | 58 | 976.5 |
| 20260508231550 | 7 | 60 | 8.0 | 14.5 | 0.00 | 0.00 | 0.00 | 57 | 976.3 |
| 20260508231049 | 7 | 49 | 6.4 | 12.9 | 0.00 | 0.00 | 0.00 | 57 | 976.2 |
| 20260508230520 | 7 | 50 | 6.4 | 12.9 | 0.00 | 0.00 | 0.00 | 57 | 976.2 |
| 20260508225949 | 7 | 49 | 6.4 | 12.9 | 0.00 | 0.00 | 0.00 | 57 | 976.3 |
| 20260508225449 | 7 | 62 | 6.4 | 12.9 | 0.00 | 0.00 | 0.00 | 56 | 976.3 |
| 20260508224949 | 7 | 30 | 6.4 | 12.9 | 0.00 | 0.00 | 0.00 | 56 | 976.3 |
| 20260508224419 | 7 | 39 | 4.8 | 11.3 | 0.00 | 0.00 | 0.00 | 54 | 976.4 |
| 20260508223919 | 8 | 35 | 4.8 | 11.3 | 0.00 | 0.00 | 0.00 | 53 | 976.4 |
| 20260508223349 | 8 | 61 | 1.6 | 6.4 | 0.00 | 0.00 | 0.00 | 52 | 976.4 |
| 20260508222849 | 8 | 158 | 3.2 | 6.4 | 0.00 | 0.00 | 0.00 | 52 | 976.4 |
| 20260508222319 | 8 | 154 | 3.2 | 9.7 | 0.00 | 0.00 | 0.00 | 52 | 976.3 |
| 20260508221819 | 8 | 199 | 4.8 | 16.1 | 0.00 | 0.00 | 0.00 | 51 | 976.3 |
| 20260508221249 | 8 | 207 | 4.8 | 16.1 | 0.00 | 0.00 | 0.00 | 50 | 976.4 |
| 20260508220750 | 8 | 209 | 4.8 | 16.1 | 0.00 | 0.00 | 0.00 | 50 | 976.3 |
| 20260508220249 | 8 | 257 | 4.8 | 12.9 | 0.00 | 0.00 | 0.00 | 51 | 976.3 |
| 20260508215749 | 8 | 225 | 4.8 | 11.3 | 0.00 | 0.00 | 0.00 | 51 | 976.4 |
| 20260508215249 | 8 | 231 | 4.8 | 12.9 | 0.00 | 0.00 | 0.00 | 50 | 976.4 |
| 20260508214749 | 8 | 193 | 4.8 | 12.9 | 0.00 | 0.00 | 0.00 | 50 | 976.4 |
| 20260508214249 | 8 | 226 | 4.8 | 12.9 | 0.00 | 0.00 | 0.00 | 50 | 976.3 |
| 20260508213749 | 8 | 216 | 4.8 | 11.3 | 0.00 | 0.00 | 0.00 | 50 | 976.4 |
| 20260508213249 | 8 | 61 | 4.8 | 14.5 | 0.00 | 0.00 | 0.00 | 49 | 976.5 |
| 20260508212749 | 8 | 68 | 6.4 | 16.1 | 0.00 | 0.00 | 0.00 | 48 | 976.3 |
| 20260508212249 | 8 | 64 | 8.0 | 16.1 | 0.00 | 0.00 | 0.00 | 47 | 976.4 |
| 20260508211749 | 8 | 68 | 6.4 | 16.1 | 0.00 | 0.00 | 0.00 | 47 | 976.4 |
| 20260508211249 | 8 | 60 | 6.4 | 14.5 | 0.00 | 0.00 | 0.00 | 46 | 976.4 |
| 20260508210749 | 8 | 92 | 4.8 | 14.5 | 0.00 | 0.00 | 0.00 | 45 | 976.4 |
| 20260508210219 | 8 | 199 | 4.8 | 11.3 | 0.00 | 0.00 | 0.00 | 45 | 976.3 |
| 20260508205719 | 8 | 59 | 4.8 | 11.3 | 0.00 | 0.00 | 0.00 | 44 | 976.3 |
| 20260508205219 | 9 | 195 | 4.8 | 14.5 | 0.00 | 0.00 | 0.00 | 45 | 976.4 |
| 20260508204719 | 9 | 229 | 4.8 | 14.5 | 0.00 | 0.00 | 0.00 | 45 | 976.3 |
| 20260508204219 | 8 | 200 | 4.8 | 11.3 | 0.00 | 0.00 | 0.00 | 45 | 976.3 |
| 20260508203719 | 8 | 231 | 3.2 | 11.3 | 0.00 | 0.00 | 0.00 | 44 | 976.2 |
| 20260508203219 | 9 | 246 | 3.2 | 9.7 | 0.00 | 0.00 | 0.00 | 43 | 976.2 |
| 20260508202719 | 9 | 335 | 3.2 | 9.7 | 0.00 | 0.00 | 0.00 | 43 | 976.1 |
| 20260508202219 | 9 | 237 | 3.2 | 9.7 | 0.00 | 0.00 | 0.00 | 42 | 976.1 |
| 20260508201719 | 9 | 293 | 3.2 | 9.7 | 0.00 | 0.00 | 0.00 | 41 | 976.1 |
| 20260508201219 | 9 | 257 | 3.2 | 9.7 | 0.00 | 0.00 | 0.00 | 41 | 976.2 |
| 20260508200718 | 9 | 253 | 3.2 | 8.0 | 0.00 | 0.00 | 0.00 | 40 | 976.1 |
| 20260508200148 | 9 | 244 | 3.2 | 8.0 | 0.00 | 0.00 | 0.00 | 40 | 976.2 |
| 20260508195618 | 9 | 226 | 3.2 | 8.0 | 0.00 | 0.00 | 0.00 | 40 | 976.0 |
| 20260508195118 | 10 | 232 | 3.2 | 8.0 | 0.00 | 0.00 | 0.00 | 40 | 976.0 |
| 20260508194618 | 10 | 239 | 4.8 | 11.3 | 0.00 | 0.00 | 0.00 | 39 | 976.0 |
| 20260508194118 | 10 | 155 | 4.8 | 11.3 | 0.00 | 0.00 | 0.00 | 39 | 976.0 |
| 20260508193618 | 10 | 153 | 4.8 | 9.7 | 0.00 | 0.00 | 0.00 | 39 | 976.0 |
| 20260508193118 | 10 | 172 | 4.8 | 9.7 | 0.00 | 0.00 | 0.00 | 39 | 976.0 |
| 20260508192618 | 10 | 234 | 3.2 | 8.0 | 0.00 | 0.00 | 0.00 | 40 | 976.0 |
| 20260508192048 | 10 | 170 | 3.2 | 6.4 | 0.00 | 0.00 | 0.00 | 41 | 976.0 |
| 20260508191548 | 10 | 272 | 3.2 | 6.4 | 0.00 | 0.00 | 0.00 | 40 | 976.0 |
| 20260508191048 | 10 | 210 | 3.2 | 8.0 | 0.00 | 0.00 | 0.00 | 40 | 976.0 |
| 20260508190548 | 11 | 236 | 3.2 | 9.7 | 0.00 | 0.00 | 0.00 | 40 | 975.6 |
| 20260508190048 | 11 | 131 | 4.8 | 11.3 | 0.00 | 0.00 | 0.00 | 39 | 976.0 |
| 20260508185518 | 11 | 136 | 6.4 | 16.1 | 0.00 | 0.00 | 0.00 | 39 | 976.0 |
| 20260508185018 | 11 | 174 | 4.8 | 16.1 | 0.00 | 0.00 | 0.00 | 37 | 976.0 |
| 20260508184518 | 11 | 153 | 3.2 | 8.0 | 0.00 | 0.00 | 0.00 | 38 | 976.0 |
| 20260508184018 | 11 | 241 | 3.2 | 8.0 | 0.00 | 0.00 | 0.00 | 37 | 975.6 |
| 20260508183518 | 11 | 268 | 3.2 | 6.4 | 0.00 | 0.00 | 0.00 | 37 | 976.0 |
| 20260508183018 | 12 | 241 | 3.2 | 8.0 | 0.00 | 0.00 | 0.00 | 37 | 975.5 |
| 20260508182518 | 12 | 227 | 3.2 | 8.0 | 0.00 | 0.00 | 0.00 | 36 | 975.5 |
| 20260508182018 | 12 | 245 | 3.2 | 8.0 | 0.00 | 0.00 | 0.00 | 36 | 975.6 |
| 20260508181518 | 12 | 251 | 3.2 | 8.0 | 0.00 | 0.00 | 0.00 | 36 | 975.6 |
| 20260508181018 | 12 | 220 | 3.2 | 9.7 | 0.00 | 0.00 | 0.00 | 35 | 975.6 |
| 20260508180518 | 13 | 232 | 3.2 | 9.7 | 0.00 | 0.00 | 0.00 | 35 | 975.6 |
| 20260508180018 | 13 | 43 | 3.2 | 9.7 | 0.00 | 0.00 | 0.00 | 32 | 975.6 |
| 20260508175518 | 13 | 166 | 1.6 | 4.8 | 0.00 | 0.00 | 0.00 | 32 | 975.5 |
| 20260508174948 | 13 | 246 | 1.6 | 4.8 | 0.00 | 0.00 | 0.00 | 33 | 975.5 |
| 20260508174448 | 13 | 226 | 1.6 | 6.4 | 0.00 | 0.00 | 0.00 | 32 | 975.3 |
| 20260508173948 | 13 | 114 | 1.6 | 6.4 | 0.00 | 0.00 | 0.00 | 32 | 975.5 |
| 20260508173448 | 13 | 84 | 1.6 | 8.0 | 0.00 | 0.00 | 0.00 | 32 | 975.5 |
| 20260508172948 | 14 | 164 | 3.2 | 8.0 | 0.00 | 0.00 | 0.00 | 31 | 975.4 |
| 20260508172448 | 14 | 72 | 1.6 | 6.4 | 0.00 | 0.00 | 0.00 | 30 | 975.4 |
| 20260508171948 | 14 | 206 | 1.6 | 9.7 | 0.00 | 0.00 | 0.00 | 30 | 975.3 |
| 20260508171448 | 14 | 27 | 3.2 | 9.7 | 0.00 | 0.00 | 0.00 | 29 | 975.3 |
| 20260508170948 | 14 | 188 | 3.2 | 9.7 | 0.00 | 0.00 | 0.00 | 30 | 975.4 |
| 20260508170448 | 14 | 72 | 3.2 | 9.7 | 0.00 | 0.00 | 0.00 | 28 | 975.4 |
| 20260508165918 | 15 | 103 | 1.6 | 6.4 | 0.00 | 0.00 | 0.00 | 30 | 975.4 |
| 20260508165418 | 15 | 192 | 3.2 | 11.3 | 0.00 | 0.00 | 0.00 | 30 | 975.4 |
| 20260508164918 | 15 | 259 | 3.2 | 11.3 | 0.00 | 0.00 | 0.00 | 29 | 975.4 |
| 20260508164417 | 15 | 200 | 3.2 | 6.4 | 0.00 | 0.00 | 0.00 | 28 | 975.6 |
| 20260508163847 | 15 | 244 | 3.2 | 6.4 | 0.00 | 0.00 | 0.00 | 30 | 975.6 |
| 20260508163317 | 15 | 160 | 3.2 | 6.4 | 0.00 | 0.00 | 0.00 | 29 | 975.6 |
| 20260508162817 | 15 | 173 | 3.2 | 12.9 | 0.00 | 0.00 | 0.00 | 28 | 975.6 |
| 20260508162317 | 15 | 289 | 3.2 | 12.9 | 0.00 | 0.00 | 0.00 | 29 | 975.6 |
| 20260508161817 | 15 | 117 | 3.2 | 9.7 | 0.00 | 0.00 | 0.00 | 29 | 975.5 |
| 20260508161317 | 15 | 157 | 3.2 | 9.7 | 0.00 | 0.00 | 0.00 | 28 | 975.5 |
| 20260508160747 | 15 | 139 | 3.2 | 9.7 | 0.00 | 0.00 | 0.00 | 29 | 975.6 |
| 20260508160247 | 15 | 97 | 4.8 | 11.3 | 0.00 | 0.00 | 0.00 | 29 | 975.6 |
| 20260508155717 | 15 | 219 | 4.8 | 16.1 | 0.00 | 0.00 | 0.00 | 28 | 975.6 |
| 20260508155217 | 15 | 330 | 4.8 | 20.9 | 0.00 | 0.00 | 0.00 | 28 | 975.6 |
| 20260508154717 | 15 | 218 | 6.4 | 27.4 | 0.00 | 0.00 | 0.00 | 29 | 975.5 |
| 20260508154217 | 15 | 156 | 6.4 | 27.4 | 0.00 | 0.00 | 0.00 | 28 | 975.5 |
| 20260508153717 | 15 | 71 | 6.4 | 27.4 | 0.00 | 0.00 | 0.00 | 26 | 975.5 |
| 20260508153217 | 15 | 232 | 6.4 | 25.7 | 0.00 | 0.00 | 0.00 | 28 | 975.6 |
| 20260508152717 | 15 | 221 | 4.8 | 25.7 | 0.00 | 0.00 | 0.00 | 28 | 975.6 |
| 20260508152217 | 15 | 192 | 4.8 | 14.5 | 0.00 | 0.00 | 0.00 | 29 | 976.0 |
| 20260508151717 | 15 | 202 | 4.8 | 12.9 | 0.00 | 0.00 | 0.00 | 28 | 976.0 |
| 20260508151217 | 15 | 214 | 4.8 | 12.9 | 0.00 | 0.00 | 0.00 | 29 | 975.6 |
| 20260508150647 | 15 | 205 | 3.2 | 11.3 | 0.00 | 0.00 | 0.00 | 30 | 976.0 |
| 20260508150117 | 15 | 134 | 4.8 | 20.9 | 0.00 | 0.00 | 0.00 | 28 | 976.0 |
| 20260508145617 | 14 | 237 | 6.4 | 20.9 | 0.00 | 0.00 | 0.00 | 30 | 976.0 |
| 20260508145117 | 15 | 337 | 6.4 | 20.9 | 0.00 | 0.00 | 0.00 | 31 | 976.0 |
| 20260508144617 | 14 | 207 | 9.7 | 27.4 | 0.00 | 0.00 | 0.00 | 31 | 976.0 |
| 20260508144047 | 14 | 50 | 11.3 | 27.4 | 0.00 | 0.00 | 0.00 | 30 | 976.0 |
| 20260508143547 | 14 | 86 | 8.0 | 25.7 | 0.00 | 0.00 | 0.00 | 30 | 976.0 |
| 20260508143047 | 14 | 231 | 6.4 | 25.7 | 0.00 | 0.00 | 0.00 | 30 | 976.0 |
| 20260508142517 | 14 | 178 | 9.7 | 25.7 | 0.00 | 0.00 | 0.00 | 31 | 976.0 |
| 20260508142017 | 13 | 66 | 9.7 | 25.7 | 0.00 | 0.00 | 0.00 | 30 | 976.0 |
| 20260508141517 | 14 | 45 | 6.4 | 19.3 | 0.00 | 0.00 | 0.00 | 30 | 976.0 |
| 20260508141017 | 15 | 261 | 4.8 | 14.5 | 0.00 | 0.00 | 0.00 | 31 | 976.1 |
| 20260508140517 | 15 | 142 | 6.4 | 16.1 | 0.00 | 0.00 | 0.00 | 32 | 976.1 |
| 20260508140016 | 14 | 128 | 8.0 | 19.3 | 0.00 | 0.00 | 0.00 | 30 | 976.3 |
| 20260508135516 | 14 | 50 | 8.0 | 20.9 | 0.00 | 0.00 | 0.00 | 30 | 976.3 |
| 20260508134946 | 14 | 18 | 12.9 | 27.4 | 0.00 | 0.00 | 0.00 | 30 | 976.2 |
| 20260508134446 | 13 | 51 | 12.9 | 27.4 | 0.00 | 0.00 | 0.00 | 31 | 976.2 |
| 20260508133946 | 13 | 62 | 12.9 | 27.4 | 0.00 | 0.00 | 0.00 | 29 | 976.4 |
| 20260508133446 | 13 | 17 | 11.3 | 27.4 | 0.00 | 0.00 | 0.00 | 29 | 976.5 |
| 20260508132916 | 13 | 62 | 11.3 | 27.4 | 0.00 | 0.00 | 0.00 | 30 | 976.6 |
| 20260508132416 | 14 | 129 | 11.3 | 27.4 | 0.00 | 0.00 | 0.00 | 30 | 977.0 |
| 20260508131846 | 13 | 54 | 9.7 | 24.1 | 0.00 | 0.00 | 0.00 | 31 | 977.0 |
| 20260508131346 | 13 | 65 | 8.0 | 24.1 | 0.00 | 0.00 | 0.00 | 28 | 977.0 |
| 20260508130846 | 14 | 120 | 4.8 | 14.5 | 0.00 | 0.00 | 0.00 | 28 | 977.0 |
| 20260508130346 | 14 | 229 | 4.8 | 20.9 | 0.00 | 0.00 | 0.00 | 30 | 977.0 |
| 20260508125846 | 14 | 131 | 6.4 | 20.9 | 0.00 | 0.00 | 0.00 | 30 | 977.0 |
| 20260508125316 | 13 | 275 | 8.0 | 20.9 | 0.00 | 0.00 | 0.00 | 29 | 977.0 |
| 20260508124816 | 14 | 143 | 8.0 | 17.7 | 0.00 | 0.00 | 0.00 | 30 | 977.0 |
| 20260508124316 | 14 | 154 | 9.7 | 30.6 | 0.00 | 0.00 | 0.00 | 30 | 977.0 |
| 20260508123816 | 13 | 206 | 11.3 | 30.6 | 0.00 | 0.00 | 0.00 | 27 | 977.0 |
| 20260508123316 | 14 | 66 | 8.0 | 32.2 | 0.00 | 0.00 | 0.00 | 26 | 977.0 |
| 20260508122816 | 14 | 281 | 8.0 | 32.2 | 0.00 | 0.00 | 0.00 | 26 | 977.0 |
| 20260508122316 | 15 | 237 | 6.4 | 19.3 | 0.00 | 0.00 | 0.00 | 28 | 977.0 |
| 20260508121816 | 14 | 96 | 8.0 | 24.1 | 0.00 | 0.00 | 0.00 | 29 | 977.0 |
| 20260508121316 | 14 | 183 | 9.7 | 27.4 | 0.00 | 0.00 | 0.00 | 29 | 977.0 |
| 20260508120816 | 13 | 246 | 12.9 | 33.8 | 0.00 | 0.00 | 0.00 | 29 | 977.0 |
| 20260508120246 | 13 | 117 | 14.5 | 33.8 | 0.00 | 0.00 | 0.00 | 33 | 977.0 |
| 20260508115746 | 13 | 62 | 12.9 | 32.2 | 0.00 | 0.00 | 0.00 | 32 | 977.0 |
| 20260508115246 | 13 | 29 | 12.9 | 30.6 | 0.00 | 0.00 | 0.00 | 32 | 977.0 |
| 20260508114746 | 12 | 42 | 12.9 | 30.6 | 0.00 | 0.00 | 0.00 | 32 | 977.0 |
| 20260508114216 | 13 | 57 | 8.0 | 29.0 | 0.00 | 0.00 | 0.00 | 31 | 977.0 |
| 20260508113716 | 14 | 72 | 9.7 | 27.4 | 0.00 | 0.00 | 0.00 | 32 | 977.0 |
| 20260508113216 | 13 | 185 | 9.7 | 27.4 | 0.00 | 0.00 | 0.00 | 33 | 977.0 |
| 20260508112716 | 13 | 25 | 9.7 | 27.4 | 0.00 | 0.00 | 0.00 | 30 | 977.0 |
| 20260508112216 | 14 | 56 | 9.7 | 29.0 | 0.00 | 0.00 | 0.00 | 30 | 977.0 |